owner,sensor,date,latitude,longitude,air_temperature,qcFlag 
LOOP,urn:ioos:station:wmo:lopl1:1,2018-07-01T00:34:00Z,28.8850,-90.0250,29.9,1111122 
LOOP,urn:ioos:station:wmo:lopl1:1,2018-07-01T01:34:00Z,28.8850,-90.0250,29.6,1111122 
LOOP,urn:ioos:station:wmo:lopl1:1,2018-07-01T02:34:00Z,28.8850,-90.0250,29.5,1111122 
LOOP,urn:ioos:station:wmo:lopl1:1,2018-07-01T03:34:00Z,28.8850,-90.0250,29.3,1111122 
LOOP,urn:ioos:station:wmo:lopl1:1,2018-07-01T04:34:00Z,28.8850,-90.0250,29.2,1111122 
LOOP,urn:ioos:station:wmo:lopl1:1,2018-07-01T05:34:00Z,28.8850,-90.0250,29.7,1111122 
LOOP,urn:ioos:station:wmo:lopl1:1,2018-07-01T06:34:00Z,28.8850,-90.0250,29.6,1111122 
LOOP,urn:ioos:station:wmo:lopl1:1,2018-07-01T07:34:00Z,28.8850,-90.0250,27.4,1111122 
LOOP,urn:ioos:station:wmo:lopl1:1,2018-07-01T08:34:00Z,28.8850,-90.0250,27.6,1111122 
LOOP,urn:ioos:station:wmo:lopl1:1,2018-07-01T09:34:00Z,28.8850,-90.0250,28.7,1111122 
LOOP,urn:ioos:station:wmo:lopl1:1,2018-07-01T10:34:00Z,28.8850,-90.0250,28.6,1111122 
LOOP,urn:ioos:station:wmo:lopl1:1,2018-07-01T11:34:00Z,28.8850,-90.0250,28.6,1111122 
LOOP,urn:ioos:station:wmo:lopl1:1,2018-07-01T12:34:00Z,28.8850,-90.0250,28.7,1111122 
LOOP,urn:ioos:station:wmo:lopl1:1,2018-07-01T13:34:00Z,28.8850,-90.0250,29.0,1111122 
LOOP,urn:ioos:station:wmo:lopl1:1,2018-07-01T14:34:00Z,28.8850,-90.0250,29.5,1111122 
LOOP,urn:ioos:station:wmo:lopl1:1,2018-07-01T15:34:00Z,28.8850,-90.0250,30.4,1111122 
LOOP,urn:ioos:station:wmo:lopl1:1,2018-07-01T16:34:00Z,28.8850,-90.0250,30.1,1111122 
LOOP,urn:ioos:station:wmo:lopl1:1,2018-07-01T17:34:00Z,28.8850,-90.0250,30.1,1111122 
LOOP,urn:ioos:station:wmo:lopl1:1,2018-07-01T18:34:00Z,28.8850,-90.0250,30.7,1111122 
LOOP,urn:ioos:station:wmo:lopl1:1,2018-07-01T19:34:00Z,28.8850,-90.0250,26.2,1111122 
LOOP,urn:ioos:station:wmo:lopl1:1,2018-07-01T20:34:00Z,28.8850,-90.0250,26.8,1111122 
LOOP,urn:ioos:station:wmo:lopl1:1,2018-07-01T21:34:00Z,28.8850,-90.0250,28.4,1111122 
LOOP,urn:ioos:station:wmo:lopl1:1,2018-07-01T22:34:00Z,28.8850,-90.0250,28.6,1111122 
LOOP,urn:ioos:station:wmo:lopl1:1,2018-07-01T23:34:00Z,28.8850,-90.0250,27.4,1111122 
LOOP,urn:ioos:station:wmo:lopl1:1,2018-07-02T00:34:00Z,28.8850,-90.0250,28.0,1111122 
LOOP,urn:ioos:station:wmo:lopl1:1,2018-07-02T01:34:00Z,28.8850,-90.0250,28.9,1111122 
LOOP,urn:ioos:station:wmo:lopl1:1,2018-07-02T02:34:00Z,28.8850,-90.0250,29.0,1111122 
LOOP,urn:ioos:station:wmo:lopl1:1,2018-07-02T03:34:00Z,28.8850,-90.0250,30.3,1111122 
LOOP,urn:ioos:station:wmo:lopl1:1,2018-07-02T04:34:00Z,28.8850,-90.0250,28.4,1111122 
LOOP,urn:ioos:station:wmo:lopl1:1,2018-07-02T05:34:00Z,28.8850,-90.0250,28.4,1111122 
LOOP,urn:ioos:station:wmo:lopl1:1,2018-07-02T06:34:00Z,28.8850,-90.0250,28.5,1111122 
LOOP,urn:ioos:station:wmo:lopl1:1,2018-07-02T07:34:00Z,28.8850,-90.0250,28.4,1111122 
LOOP,urn:ioos:station:wmo:lopl1:1,2018-07-02T08:34:00Z,28.8850,-90.0250,28.2,1111122 
LOOP,urn:ioos:station:wmo:lopl1:1,2018-07-02T09:34:00Z,28.8850,-90.0250,28.2,1111122 
LOOP,urn:ioos:station:wmo:lopl1:1,2018-07-02T10:34:00Z,28.8850,-90.0250,28.5,1111122 
LOOP,urn:ioos:station:wmo:lopl1:1,2018-07-02T11:34:00Z,28.8850,-90.0250,29.7,1111122 
LOOP,urn:ioos:station:wmo:lopl1:1,2018-07-02T12:34:00Z,28.8850,-90.0250,27.2,1111122 
LOOP,urn:ioos:station:wmo:lopl1:1,2018-07-02T13:47:00Z,28.8850,-90.0250,26.6,11111222 
LOOP,urn:ioos:station:wmo:lopl1:1,2018-07-02T13:52:00Z,28.8850,-90.0250,26.7,1111122 
LOOP,urn:ioos:station:wmo:lopl1:1,2018-07-02T14:52:00Z,28.8850,-90.0250,26.4,1111122 
LOOP,urn:ioos:station:wmo:lopl1:1,2018-07-02T15:52:00Z,28.8850,-90.0250,26.5,1111122 
LOOP,urn:ioos:station:wmo:lopl1:1,2018-07-02T16:52:00Z,28.8850,-90.0250,27.2,1111122 
LOOP,urn:ioos:station:wmo:lopl1:1,2018-07-02T17:52:00Z,28.8850,-90.0250,26.7,1111122 
LOOP,urn:ioos:station:wmo:lopl1:1,2018-07-02T18:52:00Z,28.8850,-90.0250,27.8,1111122 
LOOP,urn:ioos:station:wmo:lopl1:1,2018-07-02T19:52:00Z,28.8850,-90.0250,28.6,1111122 
LOOP,urn:ioos:station:wmo:lopl1:1,2018-07-02T20:52:00Z,28.8850,-90.0250,28.0,1111122 
LOOP,urn:ioos:station:wmo:lopl1:1,2018-07-02T21:52:00Z,28.8850,-90.0250,22.3,11111222 
LOOP,urn:ioos:station:wmo:lopl1:1,2018-07-02T22:52:00Z,28.8850,-90.0250,23.2,1111122 
LOOP,urn:ioos:station:wmo:lopl1:1,2018-07-02T23:52:00Z,28.8850,-90.0250,24.0,1111122 
LOOP,urn:ioos:station:wmo:lopl1:1,2018-07-03T00:52:00Z,28.8850,-90.0250,24.9,1111122 
LOOP,urn:ioos:station:wmo:lopl1:1,2018-07-03T01:52:00Z,28.8850,-90.0250,25.4,1111122 
LOOP,urn:ioos:station:wmo:lopl1:1,2018-07-03T02:52:00Z,28.8850,-90.0250,25.5,1111122 
LOOP,urn:ioos:station:wmo:lopl1:1,2018-07-03T03:52:00Z,28.8850,-90.0250,25.6,1111122 
LOOP,urn:ioos:station:wmo:lopl1:1,2018-07-03T04:52:00Z,28.8850,-90.0250,25.8,1111122 
LOOP,urn:ioos:station:wmo:lopl1:1,2018-07-03T05:52:00Z,28.8850,-90.0250,26.7,1111122 
LOOP,urn:ioos:station:wmo:lopl1:1,2018-07-03T06:52:00Z,28.8850,-90.0250,26.6,1111122 
LOOP,urn:ioos:station:wmo:lopl1:1,2018-07-03T07:52:00Z,28.8850,-90.0250,27.4,1111122 
LOOP,urn:ioos:station:wmo:lopl1:1,2018-07-03T08:52:00Z,28.8850,-90.0250,27.0,11111222 
LOOP,urn:ioos:station:wmo:lopl1:1,2018-07-03T09:52:00Z,28.8850,-90.0250,27.2,1111122 
LOOP,urn:ioos:station:wmo:lopl1:1,2018-07-03T10:52:00Z,28.8850,-90.0250,27.8,1111122 
LOOP,urn:ioos:station:wmo:lopl1:1,2018-07-03T11:52:00Z,28.8850,-90.0250,25.8,1111122 
LOOP,urn:ioos:station:wmo:lopl1:1,2018-07-03T12:52:00Z,28.8850,-90.0250,25.9,1111122 
LOOP,urn:ioos:station:wmo:lopl1:1,2018-07-03T13:52:00Z,28.8850,-90.0250,26.4,1111122 
LOOP,urn:ioos:station:wmo:lopl1:1,2018-07-03T14:52:00Z,28.8850,-90.0250,25.8,1111122 
LOOP,urn:ioos:station:wmo:lopl1:1,2018-07-03T15:52:00Z,28.8850,-90.0250,24.2,11111222 
LOOP,urn:ioos:station:wmo:lopl1:1,2018-07-03T16:52:00Z,28.8850,-90.0250,24.3,1111122 
LOOP,urn:ioos:station:wmo:lopl1:1,2018-07-03T17:52:00Z,28.8850,-90.0250,24.2,1111122 
LOOP,urn:ioos:station:wmo:lopl1:1,2018-07-03T18:52:00Z,28.8850,-90.0250,25.1,1111122 
LOOP,urn:ioos:station:wmo:lopl1:1,2018-07-03T19:52:00Z,28.8850,-90.0250,24.6,1111122 
LOOP,urn:ioos:station:wmo:lopl1:1,2018-07-03T20:52:00Z,28.8850,-90.0250,25.9,1111122 
LOOP,urn:ioos:station:wmo:lopl1:1,2018-07-03T21:52:00Z,28.8850,-90.0250,26.0,1111122 
LOOP,urn:ioos:station:wmo:lopl1:1,2018-07-03T22:52:00Z,28.8850,-90.0250,26.3,1111122 
LOOP,urn:ioos:station:wmo:lopl1:1,2018-07-03T23:52:00Z,28.8850,-90.0250,26.7,1111122 
LOOP,urn:ioos:station:wmo:lopl1:1,2018-07-04T00:52:00Z,28.8850,-90.0250,26.6,1111122 
LOOP,urn:ioos:station:wmo:lopl1:1,2018-07-04T01:52:00Z,28.8850,-90.0250,26.7,1111122 
LOOP,urn:ioos:station:wmo:lopl1:1,2018-07-04T02:52:00Z,28.8850,-90.0250,26.6,1111122 
LOOP,urn:ioos:station:wmo:lopl1:1,2018-07-04T03:52:00Z,28.8850,-90.0250,26.7,1111122 
LOOP,urn:ioos:station:wmo:lopl1:1,2018-07-04T04:52:00Z,28.8850,-90.0250,26.7,1111122 
LOOP,urn:ioos:station:wmo:lopl1:1,2018-07-04T05:57:00Z,28.8850,-90.0250,26.8,1111122 
LOOP,urn:ioos:station:wmo:lopl1:1,2018-07-04T06:57:00Z,28.8850,-90.0250,26.8,1111122 
LOOP,urn:ioos:station:wmo:lopl1:1,2018-07-04T07:57:00Z,28.8850,-90.0250,26.9,1111122 
LOOP,urn:ioos:station:wmo:lopl1:1,2018-07-04T08:57:00Z,28.8850,-90.0250,26.8,1111122 
LOOP,urn:ioos:station:wmo:lopl1:1,2018-07-04T09:57:00Z,28.8850,-90.0250,27.0,1111122 
LOOP,urn:ioos:station:wmo:lopl1:1,2018-07-04T10:57:00Z,28.8850,-90.0250,27.2,1111122 
LOOP,urn:ioos:station:wmo:lopl1:1,2018-07-04T11:57:00Z,28.8850,-90.0250,27.2,1111122 
LOOP,urn:ioos:station:wmo:lopl1:1,2018-07-04T12:57:00Z,28.8850,-90.0250,27.4,1111122 
LOOP,urn:ioos:station:wmo:lopl1:1,2018-07-04T13:57:00Z,28.8850,-90.0250,27.5,1111122 
LOOP,urn:ioos:station:wmo:lopl1:1,2018-07-04T14:57:00Z,28.8850,-90.0250,27.7,1111122 
LOOP,urn:ioos:station:wmo:lopl1:1,2018-07-04T15:57:00Z,28.8850,-90.0250,27.5,1111122 
LOOP,urn:ioos:station:wmo:lopl1:1,2018-07-04T16:57:00Z,28.8850,-90.0250,27.8,1111122 
LOOP,urn:ioos:station:wmo:lopl1:1,2018-07-04T17:57:00Z,28.8850,-90.0250,28.0,1111122 
LOOP,urn:ioos:station:wmo:lopl1:1,2018-07-04T18:57:00Z,28.8850,-90.0250,28.0,1111122 
LOOP,urn:ioos:station:wmo:lopl1:1,2018-07-04T19:57:00Z,28.8850,-90.0250,28.0,1111122 
LOOP,urn:ioos:station:wmo:lopl1:1,2018-07-04T20:57:00Z,28.8850,-90.0250,28.2,1111122 
LOOP,urn:ioos:station:wmo:lopl1:1,2018-07-04T21:57:00Z,28.8850,-90.0250,27.9,1111122 
LOOP,urn:ioos:station:wmo:lopl1:1,2018-07-04T22:57:00Z,28.8850,-90.0250,28.0,11111222 
LOOP,urn:ioos:station:wmo:lopl1:1,2018-07-04T23:57:00Z,28.8850,-90.0250,28.0,1111122 
LOOP,urn:ioos:station:wmo:lopl1:1,2018-07-05T00:57:00Z,28.8850,-90.0250,28.1,1111122 
LOOP,urn:ioos:station:wmo:lopl1:1,2018-07-05T01:57:00Z,28.8850,-90.0250,28.0,1111122 
LOOP,urn:ioos:station:wmo:lopl1:1,2018-07-05T02:57:00Z,28.8850,-90.0250,27.9,1111122 
LOOP,urn:ioos:station:wmo:lopl1:1,2018-07-05T03:57:00Z,28.8850,-90.0250,27.9,1111122 
LOOP,urn:ioos:station:wmo:lopl1:1,2018-07-05T04:57:00Z,28.8850,-90.0250,27.9,1111122 
LOOP,urn:ioos:station:wmo:lopl1:1,2018-07-05T05:57:00Z,28.8850,-90.0250,27.8,1111122 
LOOP,urn:ioos:station:wmo:lopl1:1,2018-07-05T06:57:00Z,28.8850,-90.0250,27.9,1111122 
LOOP,urn:ioos:station:wmo:lopl1:1,2018-07-05T07:57:00Z,28.8850,-90.0250,27.9,1111122 
LOOP,urn:ioos:station:wmo:lopl1:1,2018-07-05T08:57:00Z,28.8850,-90.0250,27.7,1111122 
LOOP,urn:ioos:station:wmo:lopl1:1,2018-07-05T09:57:00Z,28.8850,-90.0250,27.4,1111122 
LOOP,urn:ioos:station:wmo:lopl1:1,2018-07-05T11:02:00Z,28.8850,-90.0250,27.4,1111122 
LOOP,urn:ioos:station:wmo:lopl1:1,2018-07-05T12:02:00Z,28.8850,-90.0250,26.6,1111122 
LOOP,urn:ioos:station:wmo:lopl1:1,2018-07-05T13:02:00Z,28.8850,-90.0250,26.3,1111122 
LOOP,urn:ioos:station:wmo:lopl1:1,2018-07-05T14:02:00Z,28.8850,-90.0250,25.0,1111122 
LOOP,urn:ioos:station:wmo:lopl1:1,2018-07-05T15:02:00Z,28.8850,-90.0250,23.1,1111122 
LOOP,urn:ioos:station:wmo:lopl1:1,2018-07-05T16:02:00Z,28.8850,-90.0250,23.0,1111122 
LOOP,urn:ioos:station:wmo:lopl1:1,2018-07-05T17:02:00Z,28.8850,-90.0250,26.1,11111222 
LOOP,urn:ioos:station:wmo:lopl1:1,2018-07-05T17:12:00Z,28.8850,-90.0250,26.3,1111122 
LOOP,urn:ioos:station:wmo:lopl1:1,2018-07-05T18:12:00Z,28.8850,-90.0250,25.0,1111122 
LOOP,urn:ioos:station:wmo:lopl1:1,2018-07-05T19:12:00Z,28.8850,-90.0250,26.2,1111122 
LOOP,urn:ioos:station:wmo:lopl1:1,2018-07-05T20:12:00Z,28.8850,-90.0250,26.6,1111122 
LOOP,urn:ioos:station:wmo:lopl1:1,2018-07-05T21:12:00Z,28.8850,-90.0250,26.9,1111122 
LOOP,urn:ioos:station:wmo:lopl1:1,2018-07-05T22:22:00Z,28.8850,-90.0250,27.0,1111122 
LOOP,urn:ioos:station:wmo:lopl1:1,2018-07-05T23:22:00Z,28.8850,-90.0250,26.9,1111122 
LOOP,urn:ioos:station:wmo:lopl1:1,2018-07-06T00:22:00Z,28.8850,-90.0250,27.0,1111122 
LOOP,urn:ioos:station:wmo:lopl1:1,2018-07-06T01:22:00Z,28.8850,-90.0250,26.7,1111122 
LOOP,urn:ioos:station:wmo:lopl1:1,2018-07-06T02:22:00Z,28.8850,-90.0250,25.8,1111122 
LOOP,urn:ioos:station:wmo:lopl1:1,2018-07-06T03:22:00Z,28.8850,-90.0250,26.1,1111122 
LOOP,urn:ioos:station:wmo:lopl1:1,2018-07-06T04:22:00Z,28.8850,-90.0250,26.3,1111122 
LOOP,urn:ioos:station:wmo:lopl1:1,2018-07-06T05:22:00Z,28.8850,-90.0250,26.5,1111122 
LOOP,urn:ioos:station:wmo:lopl1:1,2018-07-06T06:22:00Z,28.8850,-90.0250,26.4,1111122 
LOOP,urn:ioos:station:wmo:lopl1:1,2018-07-06T07:22:00Z,28.8850,-90.0250,26.8,1111122 
LOOP,urn:ioos:station:wmo:lopl1:1,2018-07-06T08:22:00Z,28.8850,-90.0250,26.4,1111122 
LOOP,urn:ioos:station:wmo:lopl1:1,2018-07-06T09:22:00Z,28.8850,-90.0250,26.6,1111122 
LOOP,urn:ioos:station:wmo:lopl1:1,2018-07-06T10:22:00Z,28.8850,-90.0250,26.6,1111122 
LOOP,urn:ioos:station:wmo:lopl1:1,2018-07-06T11:22:00Z,28.8850,-90.0250,26.2,1111122 
LOOP,urn:ioos:station:wmo:lopl1:1,2018-07-06T12:22:00Z,28.8850,-90.0250,26.1,1111122 
LOOP,urn:ioos:station:wmo:lopl1:1,2018-07-06T13:22:00Z,28.8850,-90.0250,25.9,1111122 
LOOP,urn:ioos:station:wmo:lopl1:1,2018-07-06T14:27:00Z,28.8850,-90.0250,26.2,1111122 
LOOP,urn:ioos:station:wmo:lopl1:1,2018-07-06T15:27:00Z,28.8850,-90.0250,26.9,1111122 
LOOP,urn:ioos:station:wmo:lopl1:1,2018-07-06T16:27:00Z,28.8850,-90.0250,27.3,1111122 
LOOP,urn:ioos:station:wmo:lopl1:1,2018-07-06T17:27:00Z,28.8850,-90.0250,26.9,1111122 
LOOP,urn:ioos:station:wmo:lopl1:1,2018-07-06T18:27:00Z,28.8850,-90.0250,27.2,1111122 
LOOP,urn:ioos:station:wmo:lopl1:1,2018-07-06T19:27:00Z,28.8850,-90.0250,26.5,1111122 
LOOP,urn:ioos:station:wmo:lopl1:1,2018-07-06T20:27:00Z,28.8850,-90.0250,27.3,1111122 
LOOP,urn:ioos:station:wmo:lopl1:1,2018-07-06T21:27:00Z,28.8850,-90.0250,27.4,1111122 
LOOP,urn:ioos:station:wmo:lopl1:1,2018-07-06T22:27:00Z,28.8850,-90.0250,27.4,1111122 
LOOP,urn:ioos:station:wmo:lopl1:1,2018-07-06T23:27:00Z,28.8850,-90.0250,27.6,1111122 
LOOP,urn:ioos:station:wmo:lopl1:1,2018-07-07T00:27:00Z,28.8850,-90.0250,27.6,1111122 
LOOP,urn:ioos:station:wmo:lopl1:1,2018-07-07T01:27:00Z,28.8850,-90.0250,27.6,1111122 
LOOP,urn:ioos:station:wmo:lopl1:1,2018-07-07T02:27:00Z,28.8850,-90.0250,27.5,1111122 
LOOP,urn:ioos:station:wmo:lopl1:1,2018-07-07T03:27:00Z,28.8850,-90.0250,27.5,1111122 
LOOP,urn:ioos:station:wmo:lopl1:1,2018-07-07T04:27:00Z,28.8850,-90.0250,27.5,1111122 
LOOP,urn:ioos:station:wmo:lopl1:1,2018-07-07T05:27:00Z,28.8850,-90.0250,27.5,1111122 
LOOP,urn:ioos:station:wmo:lopl1:1,2018-07-07T06:27:00Z,28.8850,-90.0250,27.4,1111122 
LOOP,urn:ioos:station:wmo:lopl1:1,2018-07-07T07:27:00Z,28.8850,-90.0250,27.1,1111122 
LOOP,urn:ioos:station:wmo:lopl1:1,2018-07-07T08:27:00Z,28.8850,-90.0250,27.3,1111122 
LOOP,urn:ioos:station:wmo:lopl1:1,2018-07-07T09:27:00Z,28.8850,-90.0250,27.3,1111122 
LOOP,urn:ioos:station:wmo:lopl1:1,2018-07-07T10:27:00Z,28.8850,-90.0250,27.1,1111122 
LOOP,urn:ioos:station:wmo:lopl1:1,2018-07-07T11:27:00Z,28.8850,-90.0250,27.2,1111122 
LOOP,urn:ioos:station:wmo:lopl1:1,2018-07-07T12:27:00Z,28.8850,-90.0250,27.9,1111122 
LOOP,urn:ioos:station:wmo:lopl1:1,2018-07-07T13:27:00Z,28.8850,-90.0250,27.2,1111122 
LOOP,urn:ioos:station:wmo:lopl1:1,2018-07-07T14:27:00Z,28.8850,-90.0250,28.2,1111122 
LOOP,urn:ioos:station:wmo:lopl1:1,2018-07-07T15:27:00Z,28.8850,-90.0250,25.4,1111122 
LOOP,urn:ioos:station:wmo:lopl1:1,2018-07-07T16:27:00Z,28.8850,-90.0250,26.3,1111122 
LOOP,urn:ioos:station:wmo:lopl1:1,2018-07-07T17:27:00Z,28.8850,-90.0250,26.5,1111122 
LOOP,urn:ioos:station:wmo:lopl1:1,2018-07-07T18:32:00Z,28.8850,-90.0250,27.1,1111122 
LOOP,urn:ioos:station:wmo:lopl1:1,2018-07-07T19:32:00Z,28.8850,-90.0250,25.4,1111122 
LOOP,urn:ioos:station:wmo:lopl1:1,2018-07-07T20:32:00Z,28.8850,-90.0250,25.8,1111122 
LOOP,urn:ioos:station:wmo:lopl1:1,2018-07-07T21:32:00Z,28.8850,-90.0250,27.4,1111122 
LOOP,urn:ioos:station:wmo:lopl1:1,2018-07-07T22:32:00Z,28.8850,-90.0250,26.8,1111122 
LOOP,urn:ioos:station:wmo:lopl1:1,2018-07-07T23:32:00Z,28.8850,-90.0250,26.7,11111222 
LOOP,urn:ioos:station:wmo:lopl1:1,2018-07-08T00:32:00Z,28.8850,-90.0250,26.9,1111122 
LOOP,urn:ioos:station:wmo:lopl1:1,2018-07-08T01:32:00Z,28.8850,-90.0250,26.8,1111122 
LOOP,urn:ioos:station:wmo:lopl1:1,2018-07-08T02:32:00Z,28.8850,-90.0250,26.9,1111122 
LOOP,urn:ioos:station:wmo:lopl1:1,2018-07-08T03:32:00Z,28.8850,-90.0250,27.1,1111122 
LOOP,urn:ioos:station:wmo:lopl1:1,2018-07-08T04:32:00Z,28.8850,-90.0250,27.3,1111122 
LOOP,urn:ioos:station:wmo:lopl1:1,2018-07-08T05:32:00Z,28.8850,-90.0250,27.4,1111122 
LOOP,urn:ioos:station:wmo:lopl1:1,2018-07-08T06:32:00Z,28.8850,-90.0250,27.1,1111122 
LOOP,urn:ioos:station:wmo:lopl1:1,2018-07-08T07:32:00Z,28.8850,-90.0250,26.0,1111122 
LOOP,urn:ioos:station:wmo:lopl1:1,2018-07-08T08:32:00Z,28.8850,-90.0250,25.5,1111122 
LOOP,urn:ioos:station:wmo:lopl1:1,2018-07-08T09:32:00Z,28.8850,-90.0250,27.1,1111122 
LOOP,urn:ioos:station:wmo:lopl1:1,2018-07-08T10:32:00Z,28.8850,-90.0250,27.2,1111122 
LOOP,urn:ioos:station:wmo:lopl1:1,2018-07-08T11:32:00Z,28.8850,-90.0250,27.6,1111122 
LOOP,urn:ioos:station:wmo:lopl1:1,2018-07-08T12:32:00Z,28.8850,-90.0250,26.0,1111122 
LOOP,urn:ioos:station:wmo:lopl1:1,2018-07-08T13:32:00Z,28.8850,-90.0250,25.7,1111122 
LOOP,urn:ioos:station:wmo:lopl1:1,2018-07-08T14:32:00Z,28.8850,-90.0250,25.7,1111122 
LOOP,urn:ioos:station:wmo:lopl1:1,2018-07-08T15:32:00Z,28.8850,-90.0250,24.3,1111122 
LOOP,urn:ioos:station:wmo:lopl1:1,2018-07-08T16:32:00Z,28.8850,-90.0250,24.2,1111122 
LOOP,urn:ioos:station:wmo:lopl1:1,2018-07-08T17:32:00Z,28.8850,-90.0250,24.9,1111122 
LOOP,urn:ioos:station:wmo:lopl1:1,2018-07-08T18:32:00Z,28.8850,-90.0250,25.5,1111122 
LOOP,urn:ioos:station:wmo:lopl1:1,2018-07-08T19:32:00Z,28.8850,-90.0250,25.4,1111122 
LOOP,urn:ioos:station:wmo:lopl1:1,2018-07-08T20:32:00Z,28.8850,-90.0250,25.4,1111122 
LOOP,urn:ioos:station:wmo:lopl1:1,2018-07-08T21:32:00Z,28.8850,-90.0250,25.6,1111122 
LOOP,urn:ioos:station:wmo:lopl1:1,2018-07-08T22:32:00Z,28.8850,-90.0250,25.6,1111122 
LOOP,urn:ioos:station:wmo:lopl1:1,2018-07-08T23:32:00Z,28.8850,-90.0250,25.7,1111122 
LOOP,urn:ioos:station:wmo:lopl1:1,2018-07-09T00:32:00Z,28.8850,-90.0250,26.2,1111122 
LOOP,urn:ioos:station:wmo:lopl1:1,2018-07-09T01:37:00Z,28.8850,-90.0250,26.5,1111122 
LOOP,urn:ioos:station:wmo:lopl1:1,2018-07-09T02:37:00Z,28.8850,-90.0250,26.7,1111122 
LOOP,urn:ioos:station:wmo:lopl1:1,2018-07-09T03:37:00Z,28.8850,-90.0250,26.9,1111122 
LOOP,urn:ioos:station:wmo:lopl1:1,2018-07-09T04:37:00Z,28.8850,-90.0250,26.8,1111122 
LOOP,urn:ioos:station:wmo:lopl1:1,2018-07-09T05:37:00Z,28.8850,-90.0250,26.9,1111122 
LOOP,urn:ioos:station:wmo:lopl1:1,2018-07-09T06:37:00Z,28.8850,-90.0250,27.1,1111122 
LOOP,urn:ioos:station:wmo:lopl1:1,2018-07-09T07:37:00Z,28.8850,-90.0250,27.1,1111122 
LOOP,urn:ioos:station:wmo:lopl1:1,2018-07-09T08:37:00Z,28.8850,-90.0250,27.2,1111122 
LOOP,urn:ioos:station:wmo:lopl1:1,2018-07-09T09:37:00Z,28.8850,-90.0250,27.0,1111122 
LOOP,urn:ioos:station:wmo:lopl1:1,2018-07-09T10:37:00Z,28.8850,-90.0250,27.2,1111122 
LOOP,urn:ioos:station:wmo:lopl1:1,2018-07-09T11:37:00Z,28.8850,-90.0250,27.3,1111122 
LOOP,urn:ioos:station:wmo:lopl1:1,2018-07-09T12:37:00Z,28.8850,-90.0250,26.1,1111122 
LOOP,urn:ioos:station:wmo:lopl1:1,2018-07-09T13:37:00Z,28.8850,-90.0250,26.0,1111122 
LOOP,urn:ioos:station:wmo:lopl1:1,2018-07-09T14:37:00Z,28.8850,-90.0250,26.1,1111122 
LOOP,urn:ioos:station:wmo:lopl1:1,2018-07-09T15:37:00Z,28.8850,-90.0250,27.2,1111122 
LOOP,urn:ioos:station:wmo:lopl1:1,2018-07-09T16:37:00Z,28.8850,-90.0250,27.2,1111122 
LOOP,urn:ioos:station:wmo:lopl1:1,2018-07-09T17:37:00Z,28.8850,-90.0250,27.5,1111122 
LOOP,urn:ioos:station:wmo:lopl1:1,2018-07-09T18:37:00Z,28.8850,-90.0250,27.8,1111122 
LOOP,urn:ioos:station:wmo:lopl1:1,2018-07-09T19:37:00Z,28.8850,-90.0250,28.2,1111122 
LOOP,urn:ioos:station:wmo:lopl1:1,2018-07-09T20:37:00Z,28.8850,-90.0250,28.3,1111122 
LOOP,urn:ioos:station:wmo:lopl1:1,2018-07-09T21:37:00Z,28.8850,-90.0250,28.4,1111122 
LOOP,urn:ioos:station:wmo:lopl1:1,2018-07-09T22:37:00Z,28.8850,-90.0250,28.4,1111122 
LOOP,urn:ioos:station:wmo:lopl1:1,2018-07-09T23:37:00Z,28.8850,-90.0250,28.6,1111122 
LOOP,urn:ioos:station:wmo:lopl1:1,2018-07-10T00:37:00Z,28.8850,-90.0250,28.4,1111122 
LOOP,urn:ioos:station:wmo:lopl1:1,2018-07-10T01:37:00Z,28.8850,-90.0250,28.2,1111122 
LOOP,urn:ioos:station:wmo:lopl1:1,2018-07-10T02:37:00Z,28.8850,-90.0250,28.3,1111122 
LOOP,urn:ioos:station:wmo:lopl1:1,2018-07-10T03:37:00Z,28.8850,-90.0250,28.2,1111122 
LOOP,urn:ioos:station:wmo:lopl1:1,2018-07-10T04:47:00Z,28.8850,-90.0250,28.2,1111122 
LOOP,urn:ioos:station:wmo:lopl1:1,2018-07-10T05:52:00Z,28.8850,-90.0250,28.1,1111122 
LOOP,urn:ioos:station:wmo:lopl1:1,2018-07-10T06:52:00Z,28.8850,-90.0250,27.9,11111222 
LOOP,urn:ioos:station:wmo:lopl1:1,2018-07-10T07:52:00Z,28.8850,-90.0250,27.3,1111122 
LOOP,urn:ioos:station:wmo:lopl1:1,2018-07-10T08:52:00Z,28.8850,-90.0250,27.7,1111122 
LOOP,urn:ioos:station:wmo:lopl1:1,2018-07-10T09:52:00Z,28.8850,-90.0250,27.4,1111122 
LOOP,urn:ioos:station:wmo:lopl1:1,2018-07-10T10:52:00Z,28.8850,-90.0250,27.4,1111122 
LOOP,urn:ioos:station:wmo:lopl1:1,2018-07-10T11:52:00Z,28.8850,-90.0250,27.7,1111122 
LOOP,urn:ioos:station:wmo:lopl1:1,2018-07-10T12:52:00Z,28.8850,-90.0250,29.0,1111122 
LOOP,urn:ioos:station:wmo:lopl1:1,2018-07-10T13:52:00Z,28.8850,-90.0250,29.7,1111122 
LOOP,urn:ioos:station:wmo:lopl1:1,2018-07-10T14:52:00Z,28.8850,-90.0250,30.5,1111122 
LOOP,urn:ioos:station:wmo:lopl1:1,2018-07-10T15:52:00Z,28.8850,-90.0250,28.7,1111122 
LOOP,urn:ioos:station:wmo:lopl1:1,2018-07-10T16:52:00Z,28.8850,-90.0250,29.4,11111222 
LOOP,urn:ioos:station:wmo:lopl1:1,2018-07-10T17:52:00Z,28.8850,-90.0250,29.4,1111122 
LOOP,urn:ioos:station:wmo:lopl1:1,2018-07-10T18:52:00Z,28.8850,-90.0250,29.1,11111222 
LOOP,urn:ioos:station:wmo:lopl1:1,2018-07-10T19:52:00Z,28.8850,-90.0250,29.7,1111122 
LOOP,urn:ioos:station:wmo:lopl1:1,2018-07-10T20:52:00Z,28.8850,-90.0250,29.4,1111122 
LOOP,urn:ioos:station:wmo:lopl1:1,2018-07-10T21:52:00Z,28.8850,-90.0250,29.6,11111222 
LOOP,urn:ioos:station:wmo:lopl1:1,2018-07-10T22:52:00Z,28.8850,-90.0250,29.4,1111122 
LOOP,urn:ioos:station:wmo:lopl1:1,2018-07-10T23:52:00Z,28.8850,-90.0250,28.8,1111122 
LOOP,urn:ioos:station:wmo:lopl1:1,2018-07-11T00:52:00Z,28.8850,-90.0250,28.5,1111122 
LOOP,urn:ioos:station:wmo:lopl1:1,2018-07-11T01:52:00Z,28.8850,-90.0250,28.6,1111122 
LOOP,urn:ioos:station:wmo:lopl1:1,2018-07-11T02:52:00Z,28.8850,-90.0250,28.7,1111122 
LOOP,urn:ioos:station:wmo:lopl1:1,2018-07-11T03:52:00Z,28.8850,-90.0250,28.7,1111122 
LOOP,urn:ioos:station:wmo:lopl1:1,2018-07-11T04:52:00Z,28.8850,-90.0250,28.6,1111122 
LOOP,urn:ioos:station:wmo:lopl1:1,2018-07-11T05:52:00Z,28.8850,-90.0250,28.5,1111122 
LOOP,urn:ioos:station:wmo:lopl1:1,2018-07-11T06:52:00Z,28.8850,-90.0250,28.5,1111122 
LOOP,urn:ioos:station:wmo:lopl1:1,2018-07-11T07:52:00Z,28.8850,-90.0250,28.3,1111122 
LOOP,urn:ioos:station:wmo:lopl1:1,2018-07-11T08:52:00Z,28.8850,-90.0250,28.9,1111122 
LOOP,urn:ioos:station:wmo:lopl1:1,2018-07-11T09:52:00Z,28.8850,-90.0250,27.4,1111122 
LOOP,urn:ioos:station:wmo:lopl1:1,2018-07-11T10:52:00Z,28.8850,-90.0250,27.7,1111122 
LOOP,urn:ioos:station:wmo:lopl1:1,2018-07-11T12:07:00Z,28.8850,-90.0250,28.8,1111122 
LOOP,urn:ioos:station:wmo:lopl1:1,2018-07-11T13:07:00Z,28.8850,-90.0250,29.4,1111122 
LOOP,urn:ioos:station:wmo:lopl1:1,2018-07-11T14:07:00Z,28.8850,-90.0250,28.5,1111122 
LOOP,urn:ioos:station:wmo:lopl1:1,2018-07-11T15:07:00Z,28.8850,-90.0250,28.1,1111122 
LOOP,urn:ioos:station:wmo:lopl1:1,2018-07-11T16:07:00Z,28.8850,-90.0250,28.0,1111122 
LOOP,urn:ioos:station:wmo:lopl1:1,2018-07-11T17:07:00Z,28.8850,-90.0250,28.1,1111122 
LOOP,urn:ioos:station:wmo:lopl1:1,2018-07-11T18:07:00Z,28.8850,-90.0250,28.7,1111122 
LOOP,urn:ioos:station:wmo:lopl1:1,2018-07-11T19:07:00Z,28.8850,-90.0250,28.9,1111122 
LOOP,urn:ioos:station:wmo:lopl1:1,2018-07-11T20:07:00Z,28.8850,-90.0250,28.2,1111122 
LOOP,urn:ioos:station:wmo:lopl1:1,2018-07-11T21:07:00Z,28.8850,-90.0250,28.3,1111122 
LOOP,urn:ioos:station:wmo:lopl1:1,2018-07-11T22:07:00Z,28.8850,-90.0250,28.9,1111122 
LOOP,urn:ioos:station:wmo:lopl1:1,2018-07-11T23:07:00Z,28.8850,-90.0250,29.3,1111122 
LOOP,urn:ioos:station:wmo:lopl1:1,2018-07-12T00:07:00Z,28.8850,-90.0250,27.7,1111122 
LOOP,urn:ioos:station:wmo:lopl1:1,2018-07-12T01:07:00Z,28.8850,-90.0250,28.6,1111122 
LOOP,urn:ioos:station:wmo:lopl1:1,2018-07-12T02:07:00Z,28.8850,-90.0250,27.6,1111122 
LOOP,urn:ioos:station:wmo:lopl1:1,2018-07-12T03:07:00Z,28.8850,-90.0250,27.7,1111122 
LOOP,urn:ioos:station:wmo:lopl1:1,2018-07-12T04:07:00Z,28.8850,-90.0250,27.7,1111122 
LOOP,urn:ioos:station:wmo:lopl1:1,2018-07-12T05:07:00Z,28.8850,-90.0250,27.3,1111122 
LOOP,urn:ioos:station:wmo:lopl1:1,2018-07-12T06:07:00Z,28.8850,-90.0250,26.5,1111122 
LOOP,urn:ioos:station:wmo:lopl1:1,2018-07-12T07:07:00Z,28.8850,-90.0250,26.8,1111122 
LOOP,urn:ioos:station:wmo:lopl1:1,2018-07-12T08:07:00Z,28.8850,-90.0250,26.7,1111122 
LOOP,urn:ioos:station:wmo:lopl1:1,2018-07-12T09:07:00Z,28.8850,-90.0250,26.8,1111122 
LOOP,urn:ioos:station:wmo:lopl1:1,2018-07-12T10:07:00Z,28.8850,-90.0250,26.7,1111122 
LOOP,urn:ioos:station:wmo:lopl1:1,2018-07-12T11:07:00Z,28.8850,-90.0250,26.9,1111122 
LOOP,urn:ioos:station:wmo:lopl1:1,2018-07-12T12:07:00Z,28.8850,-90.0250,27.0,1111122 
LOOP,urn:ioos:station:wmo:lopl1:1,2018-07-12T13:07:00Z,28.8850,-90.0250,27.6,1111122 